Weather History for Omaha Millard, NE

Change the Weather History Date:

Friday, January 17, 2014

  Actual Average (KOMA) Record (KOMA)
Temperature  
Mean Temperature 22 °F 23 °F  
Max Temperature 32 °F 33 °F 59 °F (1986)
Min Temperature 11 °F 13 °F -16 °F (1930)
Degree Days  
Heating Degree Days 44 42  
Month to date heating degree days 714  
Since 1 July heating degree days 3193  
Cooling Degree Days 0 0  
Month to date cooling degree days 0  
Year to date cooling degree days 0  
Moisture  
Dew Point -3 °F    
Average Humidity 36    
Maximum Humidity 50    
Minimum Humidity 16    
Precipitation  
Precipitation 0.00 in 0.02 in 0.37 in (1996)
Month to date precipitation 0.37  
Year to date precipitation 0.37  
Snow  
Snow 0.00 in 0.20 in - ()
Month to date snowfall 3.3  
Since 1 July snowfall 12.3  
Snow Depth -    
Sea Level Pressure  
Sea Level Pressure 30.07 in    
Wind  
Wind Speed 11 mph (NW)    
Max Wind Speed 18 mph    
Max Gust Speed 29 mph    
Visibility 10 miles    
Events      
T = Trace of Precipitation, MM = Missing Value Source: NWS Daily Summary

Daily Weather History Graph

Daily Weather History Graph

Search for Another Location

Airport:

Trip Planner

Search our weather history database for the weather conditions in past years. The results will help you decide how hot, cold, wet, or windy it might be!

Date:

Astronomy

Jan. 17, 2014 Rise Set
Actual Time 7:46 AM CST 5:22 PM CST
Civil Twilight 7:16 AM CST 5:53 PM CST
Nautical Twilight 6:42 AM CST 6:26 PM CST
Astronomical Twilight 6:09 AM CST 6:59 PM CST
Moon 7:11 PM CST (1/17) 8:13 AM CST (1/17)
Length of Visible Light 10h 36m
Length of Day
9h 36m
Full, 98% of the Moon is Illuminated
Jan 17
Full
Jan 23
Last Quarter
Jan 30
New
Feb 6
First Quarter
Feb 14
Full

Hourly Weather History & Observations

Time (CST) Temp. Windchill Dew Point Humidity Pressure Visibility Wind Dir Wind Speed Gust Speed Precip Events Conditions
12:15 AM 15.8 °F -0.2 °F -0.0 °F 50% 30.07 in 10.0 mi NW 17.3 mph 28.8 mph N/A   Clear
12:35 AM 15.8 °F 0.9 °F -0.4 °F 49% 30.07 in 10.0 mi NW 15.0 mph 26.5 mph N/A   Clear
12:55 AM 15.8 °F -0.6 °F -1.3 °F 47% 30.08 in 10.0 mi NW 18.4 mph 27.6 mph N/A   Clear
1:15 AM 15.6 °F 1.2 °F -1.1 °F 48% 30.08 in 10.0 mi NW 13.8 mph 25.3 mph N/A   Clear
1:35 AM 15.3 °F 0.2 °F -0.6 °F 50% 30.08 in 10.0 mi NW 15.0 mph 24.2 mph N/A   Clear
1:55 AM 15.4 °F 0.4 °F -2.2 °F 46% 30.09 in 10.0 mi NW 15.0 mph 28.8 mph N/A   Clear
2:15 AM 15.3 °F -0.9 °F -2.4 °F 46% 30.09 in 10.0 mi NW 17.3 mph 25.3 mph N/A   Clear
2:35 AM 15.3 °F 0.8 °F -3.1 °F 44% 30.10 in 10.0 mi NW 13.8 mph 27.6 mph N/A   Clear
2:55 AM 14.9 °F 0.9 °F -3.1 °F 45% 30.10 in 10.0 mi NW 12.7 mph 20.7 mph N/A   Clear
3:15 AM 14.9 °F 0.9 °F -4.0 °F 43% 30.10 in 10.0 mi NW 12.7 mph 21.9 mph N/A   Clear
3:35 AM 14.5 °F -0.2 °F -4.4 °F 43% 30.10 in 10.0 mi NW 13.8 mph 20.7 mph N/A   Clear
3:55 AM 14.0 °F 2.9 °F -4.2 °F 44% 30.10 in 10.0 mi NW 8.1 mph 18.4 mph N/A   Clear
4:15 AM 13.6 °F -1.3 °F -3.3 °F 47% 30.11 in 10.0 mi NW 13.8 mph - N/A   Clear
4:35 AM 13.8 °F 1.0 °F -4.0 °F 45% 30.11 in 10.0 mi NW 10.4 mph 18.4 mph N/A   Clear
4:55 AM 13.6 °F 0.0 °F -3.6 °F 46% 30.10 in 10.0 mi NNW 11.5 mph 17.3 mph N/A   Clear
5:15 AM 13.6 °F -2.4 °F -4.0 °F 45% 30.11 in 10.0 mi NW 16.1 mph 23.0 mph N/A   Clear
5:35 AM 13.5 °F 0.5 °F -4.2 °F 45% 30.12 in 10.0 mi NW 10.4 mph 21.9 mph N/A   Clear
5:55 AM 12.9 °F 1.6 °F -4.2 °F 47% 30.12 in 10.0 mi NW 8.1 mph 16.1 mph N/A   Clear
6:15 AM 11.8 °F 3.9 °F -4.2 °F 49% 30.12 in 10.0 mi NW 4.6 mph - N/A   Clear
6:35 AM 12.9 °F -1.6 °F -4.9 °F 45% 30.12 in 10.0 mi NW 12.7 mph 17.3 mph N/A   Clear
6:55 AM 12.9 °F 3.8 °F -4.4 °F 46% 30.13 in 10.0 mi NW 5.8 mph 9.2 mph N/A   Clear
7:15 AM 11.3 °F 3.3 °F -4.4 °F 49% 30.14 in 10.0 mi NW 4.6 mph - N/A   Clear
7:35 AM 11.1 °F -0.6 °F -4.2 °F 50% 30.13 in 10.0 mi WNW 8.1 mph - N/A   Clear
7:55 AM 11.8 °F -1.5 °F -4.0 °F 49% 30.13 in 10.0 mi NW 10.4 mph - N/A   Clear
8:15 AM 12.4 °F -1.6 °F -4.5 °F 47% 30.14 in 10.0 mi NW 11.5 mph 17.3 mph N/A   Clear
8:35 AM 12.9 °F -0.9 °F -4.0 °F 47% 30.14 in 10.0 mi NW 11.5 mph - N/A   Clear
8:55 AM 14.2 °F -1.2 °F -4.9 °F 43% 30.14 in 10.0 mi NW 15.0 mph 20.7 mph N/A   Clear
9:15 AM 15.4 °F 0.4 °F -6.0 °F 38% 30.15 in 10.0 mi NW 15.0 mph 21.9 mph N/A   Clear
9:35 AM 16.7 °F 3.8 °F -7.6 °F 34% 30.15 in 10.0 mi NNW 11.5 mph 20.7 mph N/A   Clear
9:55 AM 18.0 °F 2.6 °F -8.1 °F 31% 30.16 in 10.0 mi NW 17.3 mph 23.0 mph N/A   Clear
10:15 AM 18.5 °F 4.3 °F -8.3 °F 30% 30.16 in 10.0 mi NW 15.0 mph 20.7 mph N/A   Clear
10:35 AM 19.2 °F 5.3 °F -8.1 °F 30% 30.17 in 10.0 mi NW 15.0 mph 19.6 mph N/A   Clear
10:55 AM 20.3 °F 8.3 °F -7.1 °F 30% 30.17 in 10.0 mi NW 11.5 mph 18.4 mph N/A   Clear
11:15 AM 21.2 °F 7.8 °F -8.0 °F 27% 30.17 in 10.0 mi NNW 15.0 mph 20.7 mph N/A   Clear
11:35 AM 23.0 °F 11.1 °F -7.1 °F 27% 30.16 in 10.0 mi NW 12.7 mph 17.3 mph N/A   Clear
11:55 AM 23.9 °F 12.3 °F -9.6 °F 23% 30.15 in 10.0 mi NW 12.7 mph 16.1 mph N/A   Clear
12:15 PM 24.8 °F 14.6 °F -11.2 °F 20% 30.14 in 10.0 mi NNW 10.4 mph - N/A   Clear
12:35 PM 25.9 °F 17.4 °F -12.1 °F 19% 30.13 in 10.0 mi NW 8.1 mph - N/A   Clear
12:55 PM 26.2 °F 17.8 °F -12.6 °F 18% 30.12 in 10.0 mi NNW 8.1 mph - N/A   Clear
1:15 PM 27.1 °F 18.2 °F -11.6 °F 18% 30.11 in 10.0 mi NNW 9.2 mph - N/A   Clear
1:35 PM 28.8 °F 20.9 °F -10.3 °F 18% 30.10 in 10.0 mi NNW 8.1 mph - N/A   Clear
1:55 PM 29.3 °F 23.2 °F -12.5 °F 16% 30.09 in 10.0 mi NW 5.8 mph - N/A   Clear
2:15 PM 29.5 °F 22.5 °F -10.3 °F 17% 30.09 in 10.0 mi WNW 6.9 mph - N/A   Clear
2:35 PM 30.2 °F - -7.2 °F 20% 30.09 in 10.0 mi Calm Calm - N/A   Clear
2:55 PM 30.2 °F 25.4 °F -5.8 °F 21% 30.08 in 10.0 mi WNW 4.6 mph - N/A   Clear
3:15 PM 31.1 °F - -4.0 °F 22% 30.08 in 10.0 mi Calm Calm - N/A   Clear
3:35 PM 31.5 °F - -3.1 °F 23% 30.08 in 10.0 mi Calm Calm - N/A   Clear
3:55 PM 31.6 °F - -2.6 °F 23% 30.08 in 10.0 mi Calm Calm - N/A   Clear
4:15 PM 32.0 °F 28.7 °F -1.5 °F 24% 30.07 in 10.0 mi West 3.5 mph - N/A   Clear
4:35 PM 31.8 °F - -1.3 °F 24% 30.06 in 10.0 mi Calm Calm - N/A   Clear
4:55 PM 31.6 °F - -1.3 °F 24% 30.06 in 10.0 mi Calm Calm - N/A   Clear
5:15 PM 31.1 °F - -1.3 °F 25% 30.05 in 10.0 mi Calm Calm - N/A   Clear
5:35 PM 28.0 °F - -0.4 °F 29% 30.04 in 10.0 mi Calm Calm - N/A   Clear
5:55 PM 27.3 °F - -0.4 °F 30% 30.04 in 10.0 mi Calm Calm - N/A   Clear
6:15 PM 26.2 °F - 0.1 °F 32% 30.03 in 10.0 mi Calm Calm - N/A   Clear
6:35 PM 25.9 °F - 0.5 °F 33% 30.03 in 10.0 mi Calm Calm - N/A   Clear
6:55 PM 25.7 °F - 0.5 °F 34% 30.03 in 10.0 mi Calm Calm - N/A   Scattered Clouds
7:15 PM 26.1 °F - -0.6 °F 32% 30.02 in 10.0 mi Calm Calm - N/A   Scattered Clouds
7:35 PM 26.4 °F - 0.1 °F 32% 30.01 in 10.0 mi Calm Calm - N/A   Mostly Cloudy
7:55 PM 26.2 °F - 0.9 °F 34% 30.01 in 10.0 mi Calm Calm - N/A   Overcast
8:15 PM 26.6 °F 22.6 °F 0.7 °F 33% 30.00 in 10.0 mi SE 3.5 mph - N/A   Overcast
8:35 PM 26.4 °F 19.8 °F 1.9 °F 35% 29.98 in 10.0 mi SSE 5.8 mph - N/A   Mostly Cloudy
8:55 PM 26.8 °F 22.8 °F 2.3 °F 35% 29.98 in 10.0 mi ESE 3.5 mph - N/A   Overcast
9:15 PM 26.6 °F - 3.0 °F 36% 29.96 in 10.0 mi Calm Calm - N/A   Overcast
9:35 PM 26.2 °F - 3.9 °F 39% 29.96 in 10.0 mi Calm Calm - N/A   Overcast
9:55 PM 26.4 °F 22.4 °F 4.3 °F 39% 29.95 in 10.0 mi SE 3.5 mph - N/A   Mostly Cloudy
10:15 PM 26.6 °F 22.6 °F 4.6 °F 39% 29.92 in 10.0 mi SE 3.5 mph - N/A   Mostly Cloudy
10:35 PM 27.0 °F - 5.5 °F 40% 29.91 in 10.0 mi Calm Calm - N/A   Mostly Cloudy
10:55 PM 28.4 °F 23.3 °F 7.7 °F 42% 29.89 in 10.0 mi SSE 4.6 mph - N/A   Scattered Clouds
11:15 PM 28.8 °F 23.7 °F 8.8 °F 43% 29.88 in 10.0 mi SSE 4.6 mph - N/A   Overcast
11:35 PM 28.9 °F 25.2 °F 10.6 °F 46% 29.85 in 10.0 mi SSE 3.5 mph - N/A   Overcast
11:55 PM 30.4 °F 26.9 °F 13.1 °F 49% 29.83 in 10.0 mi South 3.5 mph - N/A   Overcast